Wind_Speed
14 15 15 14 14 13 13 13 13 12 12 12 10 7 5 6 7 6 7 5 8 10 9 9 7 6 3 2 3 1 2 2 4 5 5 12 7 8 6 19 5 2 16 18 25
15 15 16 15 15 14 14 13 13 12 12 12 10 7 6 5 7 6 5 7 9 8 8 8 6 4 1 1 1 1 2 5 4 4 6 14 12 11 8 9 10 19 21 24 25
17 17 16 16 15 14 13 13 14 13 11 11 10 7 4 4 0 1 8 8 9 8 6 7 2 1 2 1 2 1 1 3 5 7 4 14 13 8 16 5 12 22 24 23 23
17 17 17 17 16 15 14 13 13 12 10 10 9 7 3 1 4 2 8 10 10 9 6 8 1 2 3 2 1 1 1 3 3 4 6 14 12 8 14 5 15 23 27 25 23
17 17 17 16 16 15 14 13 13 11 9 9 8 6 2 2 1 4 12 12 11 9 6 4 1 1 4 3 2 2 3 5 8 8 6 9 8 5 11 10 16 25 25 24 20
17 17 17 17 16 15 14 13 13 11 8 8 6 4 3 2 2 5 12 10 10 9 8 4 3 4 2 2 3 1 3 1 5 8 8 6 5 7 10 16 21 28 26 23 21
19 18 17 16 15 15 14 13 12 11 8 7 5 4 5 4 4 8 10 7 6 8 5 2 4 6 10 6 2 1 2 2 6 3 4 9 5 7 9 19 24 28 25 22 22
20 18 17 16 15 14 12 12 10 8 5 5 5 4 4 6 7 9 10 9 5 6 7 2 3 6 3 5 2 2 1 3 2 9 3 6 2 9 17 21 23 24 23 22 22
19 18 16 15 13 12 10 9 4 2 3 4 4 4 2 8 8 9 10 5 5 6 6 3 5 3 3 3 1 1 7 7 4 13 7 7 2 4 19 23 22 23 24 22 22
19 16 14 13 11 9 7 2 1 1 3 3 3 2 4 3 7 9 11 9 2 7 4 1 0 2 1 4 5 11 8 5 9 6 10 10 6 7 18 22 24 24 24 22 22
18 15 13 11 8 5 3 3 2 2 8 4 3 1 3 3 6 8 13 14 2 2 3 3 3 3 6 4 9 8 10 9 8 5 9 14 10 12 19 18 20 23 25 25 24
17 14 11 9 5 0 2 4 5 2 5 6 10 14 9 2 4 8 12 9 5 3 5 3 5 4 4 7 6 6 6 3 1 1 10 5 14 12 20 24 28 27 25 27 26
16 12 8 6 2 7 6 4 5 4 2 3 3 6 6 8 4 12 17 6 4 4 2 4 0 0 3 6 5 1 5 5 2 6 3 2 5 13 14 17 23 23 25 25 28
15 10 5 2 4 7 6 3 6 3 1 1 1 3 7 5 2 10 18 9 2 7 3 4 0 6 6 5 2 4 3 3 6 5 3 3 2 4 12 18 20 26 27 27 28
12 8 3 3 3 8 4 3 5 1 3 1 3 6 7 4 4 6 15 6 5 4 4 3 2 3 3 4 4 3 6 5 3 2 2 2 4 3 6 14 19 28 31 31 29
11 7 3 2 5 7 3 3 1 3 4 3 4 4 5 1 2 4 4 4 3 3 1 7 1 4 3 3 5 1 1 4 3 2 3 2 3 2 5 8 16 24 31 32 35
13 10 5 5 6 4 2 1 2 3 2 2 3 4 7 3 2 3 7 6 3 3 5 3 6 3 4 5 3 2 2 3 1 2 2 1 3 6 5 9 9 23 32 33 32
11 12 11 8 5 3 0 1 5 3 3 1 3 6 3 1 3 3 5 7 2 2 1 2 3 4 5 4 1 3 3 3 2 2 2 2 3 1 3 7 11 16 26 27 30
12 12 13 8 5 6 1 4 3 3 4 2 2 4 3 2 2 2 4 0 2 8 5 3 2 2 2 1 2 4 4 3 4 1 3 3 3 4 0 5 5 9 18 26 30
5 7 15 12 11 5 2 4 1 3 5 0 4 3 4 5 3 3 1 3 5 3 4 3 3 0 1 3 8 2 6 2 1 0 1 1 3 3 9 10 6 5 15 20 24
3 3 16 17 8 6 4 4 4 5 4 5 3 4 5 3 3 2 4 2 4 2 6 5 3 1 1 6 2 2 2 5 3 2 1 2 3 8 6 8 12 8 7 14 22
5 3 14 12 4 3 3 4 8 9 8 7 5 6 4 6 5 3 4 3 12 2 5 3 1 2 4 2 2 2 3 1 2 2 2 2 3 7 10 6 13 11 7 6 13
4 3 13 10 4 3 3 3 9 12 9 7 6 7 4 4 3 4 3 4 9 6 1 3 1 5 4 3 2 2 3 3 4 1 2 3 3 3 17 14 14 10 8 5 8
2 1 7 13 7 2 3 6 3 9 7 5 4 3 2 5 6 4 6 2 7 9 5 1 2 3 5 2 3 3 1 2 1 2 4 5 11 12 18 16 18 16 9 4 6
5 3 3 3 6 6 2 3 5 5 7 12 4 8 3 3 2 4 4 5 2 11 3 2 2 1 2 2 2 2 3 4 1 2 4 4 7 11 13 13 16 15 13 10 8
5 3 3 3 3 2 5 4 6 4 5 3 4 6 3 3 2 3 4 2 3 7 6 4 1 0 3 3 3 1 1 2 2 3 5 5 7 6 9 11 16 20 18 20 21
10 7 3 5 3 1 2 2 4 5 1 5 3 2 1 1 9 12 11 13 6 5 4 4 3 3 4 1 1 5 4 2 2 3 2 2 2 7 10 16 17 17 20 22 23
Wind_Direction
350 347 345 345 345 343 341 335 336 338 339 337 334 335 305 275 269 244 235 214 200 179 167 148 156 176 150 63 80 88 87 88 131 157 137 151 126 139 104 135 92 118 144 154 155
344 343 341 340 340 340 336 333 331 333 335 333 332 333 310 281 272 258 219 204 195 189 177 177 148 140 108 81 113 76 102 195 173 160 152 155 136 142 135 131 91 100 133 151 157
338 337 337 336 335 335 333 329 325 328 330 327 327 328 313 293 283 184 201 193 196 185 182 180 147 22 42 62 30 102 151 121 161 132 111 158 139 134 151 145 152 147 148 156 161
333 331 331 331 330 329 329 324 319 320 322 319 321 323 309 179 157 145 171 182 189 186 191 181 205 355 27 34 50 40 71 110 112 163 121 153 144 143 164 162 168 164 159 163 169
330 328 326 326 325 324 323 319 312 310 310 307 311 316 308 206 115 125 162 165 188 192 194 162 20 25 31 347 193 223 184 165 150 125 111 146 139 134 158 134 157 164 167 173 175
327 325 323 322 321 321 319 317 306 302 296 289 289 295 266 229 157 139 167 179 195 203 207 185 34 10 24 310 268 323 224 207 188 150 135 158 150 151 187 153 151 167 174 178 181
324 323 321 320 319 318 320 313 306 297 280 265 260 256 249 209 183 157 163 177 201 210 233 258 299 346 326 316 264 232 284 229 212 186 116 139 169 204 158 169 166 174 177 182 187
324 322 321 319 318 318 322 312 308 297 267 238 232 231 245 215 187 170 175 195 223 218 219 333 342 323 250 306 315 259 217 333 129 166 153 164 209 177 170 166 172 177 183 186 192
321 319 319 316 316 321 322 319 309 291 178 187 200 202 228 198 187 189 187 175 248 230 207 217 343 324 298 318 334 348 328 307 304 189 149 181 255 167 180 175 175 181 186 190 200
322 320 317 313 313 323 324 317 87 139 171 203 205 196 210 158 185 204 202 189 93 157 131 133 233 298 234 324 336 309 314 301 284 187 196 191 200 166 185 180 181 183 192 194 202
325 321 316 310 311 327 335 174 283 265 235 221 173 255 133 143 197 197 203 198 195 128 129 143 208 246 308 285 285 288 287 305 280 229 185 211 214 189 189 191 185 190 193 199 206
327 324 317 310 309 211 90 99 63 305 307 244 242 246 233 181 145 182 185 166 181 180 130 166 244 243 290 274 270 277 288 20 139 271 209 221 227 209 190 201 194 191 198 202 210
331 327 322 309 287 157 125 74 15 339 266 288 226 229 211 197 183 176 171 167 164 167 172 234 46 191 271 284 310 260 345 5 33 134 225 211 237 201 208 207 206 207 205 205 209
335 332 332 313 150 157 154 18 352 305 327 109 186 190 181 166 149 164 169 174 119 205 171 275 138 231 236 281 264 307 309 329 134 142 327 251 312 197 203 209 209 205 205 209 209
353 351 350 179 155 157 170 349 343 283 104 98 108 151 156 180 132 155 183 186 184 152 200 221 218 199 263 258 201 311 25 18 102 112 288 170 260 122 182 212 214 209 208 208 210
11 6 11 121 153 167 192 299 355 249 85 108 121 155 150 30 75 105 143 162 121 133 341 259 274 256 240 249 230 67 140 59 74 12 254 37 293 242 197 212 216 212 213 209 211
21 22 47 94 121 161 224 209 244 38 329 57 114 153 170 167 150 137 168 175 215 188 241 281 241 249 211 262 129 178 228 321 240 235 311 50 262 280 259 239 222 203 211 209 210
33 54 69 90 102 85 110 175 62 24 22 34 91 113 118 55 53 60 132 195 161 94 16 303 203 205 157 242 333 181 269 241 283 203 335 155 255 54 252 292 259 221 213 205 210
56 67 56 46 26 342 161 68 32 360 325 11 120 93 93 83 112 120 71 359 277 214 226 221 233 284 216 239 318 135 186 49 115 96 262 349 283 274 144 23 72 177 195 198 204
69 49 28 10 348 358 90 92 33 274 321 89 77 23 66 36 121 104 119 34 349 235 226 199 251 33 78 124 62 268 128 162 90 314 331 31 291 325 25 24 24 166 193 201 207
63 58 5 0 40 56 59 29 317 336 351 38 60 67 65 38 50 75 21 93 359 339 209 184 242 150 206 19 353 151 133 67 109 349 345 332 311 8 356 19 357 347 235 211 204
60 53 2 16 54 37 36 337 341 348 17 58 79 68 56 36 42 95 73 16 352 273 161 186 241 66 100 73 47 32 51 356 354 122 63 335 274 40 31 17 7 4 359 235 228
61 43 19 29 74 46 351 26 37 24 25 21 48 41 45 54 88 39 359 356 2 29 238 154 224 131 167 195 153 54 47 78 92 95 178 261 289 50 18 5 0 349 338 314 245
69 47 31 50 65 52 28 17 31 25 50 32 42 55 70 46 38 30 6 354 333 20 51 122 104 274 209 105 104 159 144 128 300 288 147 247 295 330 359 348 343 350 340 320 238
53 64 33 21 39 50 64 13 33 21 17 26 75 43 37 51 24 15 355 325 47 4 40 26 78 1 69 82 150 140 150 157 149 84 273 15 289 332 349 345 344 353 15 58 50
68 36 43 53 352 39 18 31 24 7 1 33 47 351 22 88 43 314 346 324 350 349 11 3 75 15 136 63 48 210 157 123 121 154 253 284 289 356 5 37 29 31 39 51 56
46 49 49 5 18 16 42 20 20 333 122 70 11 338 203 47 305 284 266 271 288 323 324 311 185 168 199 38 354 250 220 216 142 219 278 296 348 5 47 32 17 7 36 39 39
Height
1529 1527 1525 1523 1521 1519 1516 1513 1511 1509 1507 1506 1505 1505 1503 1503 1503 1505 1504 1506 1507 1508 1510 1511 1512 1512 1513 1513 1512 1513 1514 1518 1517 1517 1516 1518 1520 1525 1526 1528 1531 1532 1534 1537 1540
1528 1526 1523 1521 1519 1518 1515 1512 1510 1508 1506 1504 1504 1503 1502 1502 1502 1503 1504 1505 1506 1508 1510 1511 1511 1511 1512 1512 1512 1512 1514 1514 1512 1513 1513 1516 1518 1523 1527 1530 1533 1533 1536 1540 1542
1527 1524 1522 1519 1517 1516 1514 1511 1508 1507 1505 1503 1502 1502 1501 1500 1503 1502 1503 1504 1506 1508 1510 1511 1511 1511 1511 1512 1512 1511 1513 1513 1515 1515 1515 1516 1518 1522 1526 1530 1533 1535 1538 1541 1544
1526 1523 1520 1517 1515 1513 1512 1510 1507 1505 1504 1502 1501 1501 1500 1500 1504 1502 1502 1505 1507 1508 1510 1512 1512 1513 1511 1510 1512 1513 1514 1517 1516 1518 1516 1517 1519 1522 1525 1527 1532 1535 1538 1542 1544
1524 1521 1518 1515 1513 1511 1509 1507 1506 1503 1503 1501 1501 1500 1500 1501 1502 1502 1503 1505 1507 1508 1511 1512 1514 1514 1512 1512 1513 1511 1512 1515 1517 1517 1518 1518 1520 1521 1526 1527 1530 1536 1539 1543 1547
1520 1518 1516 1513 1510 1508 1506 1505 1503 1501 1501 1500 1499 1499 1500 1502 1501 1502 1504 1506 1508 1509 1511 1514 1514 1514 1514 1513 1511 1510 1510 1510 1512 1514 1515 1518 1520 1521 1525 1528 1530 1535 1539 1543 1546
1517 1515 1512 1510 1508 1505 1504 1502 1500 1498 1498 1498 1498 1498 1499 1500 1501 1502 1504 1507 1509 1511 1512 1514 1515 1516 1513 1511 1511 1510 1508 1508 1509 1510 1512 1515 1521 1519 1522 1526 1530 1534 1538 1543 1546
1514 1511 1509 1507 1505 1503 1501 1499 1497 1496 1496 1496 1497 1498 1497 1498 1500 1502 1505 1507 1508 1509 1511 1513 1514 1514 1514 1512 1510 1509 1508 1513 1505 1509 1511 1513 1519 1517 1520 1524 1529 1534 1538 1542 1544
1510 1508 1506 1504 1502 1500 1499 1497 1496 1495 1495 1496 1497 1498 1497 1497 1500 1502 1505 1507 1508 1509 1510 1513 1513 1514 1513 1510 1511 1510 1514 1511 1506 1507 1509 1511 1516 1515 1518 1521 1526 1531 1536 1540 1543
1507 1505 1503 1501 1499 1498 1496 1496 1496 1495 1496 1496 1496 1499 1496 1497 1498 1501 1504 1507 1508 1508 1511 1513 1514 1513 1512 1510 1524 1518 1515 1510 1509 1505 1506 1510 1514 1514 1518 1518 1522 1528 1533 1537 1541
1504 1501 1499 1498 1497 1496 1496 1496 1498 1498 1495 1493 1494 1494 1494 1496 1498 1499 1502 1505 1507 1508 1508 1514 1514 1515 1510 1510 1509 1513 1513 1513 1504 1498 1503 1505 1508 1512 1515 1519 1521 1526 1529 1532 1536
1500 1498 1496 1495 1495 1494 1495 1495 1495 1498 1494 1490 1491 1492 1493 1495 1497 1498 1501 1506 1506 1506 1509 1514 1514 1510 1509 1509 1511 1510 1509 1503 1503 1500 1505 1508 1508 1508 1511 1512 1514 1519 1525 1528 1532
1497 1495 1493 1493 1493 1494 1494 1495 1495 1494 1494 1490 1489 1490 1493 1495 1495 1497 1501 1503 1504 1507 1508 1512 1509 1509 1510 1506 1507 1505 1504 1502 1505 1507 1507 1507 1508 1506 1508 1512 1516 1519 1521 1525 1528
1494 1492 1491 1491 1494 1493 1494 1494 1494 1494 1494 1490 1489 1489 1492 1492 1495 1496 1499 1503 1505 1506 1509 1508 1507 1507 1508 1507 1504 1505 1500 1500 1504 1504 1513 1507 1510 1507 1504 1507 1510 1514 1517 1520 1523
1492 1490 1490 1490 1491 1493 1495 1494 1493 1494 1507 1489 1489 1490 1491 1494 1495 1497 1499 1501 1503 1505 1508 1509 1507 1508 1508 1503 1502 1502 1499 1501 1503 1505 1509 1509 1511 1498 1503 1504 1502 1504 1509 1513 1518
1491 1489 1489 1490 1491 1493 1494 1494 1495 1498 1509 1489 1489 1490 1492 1494 1494 1496 1498 1501 1503 1505 1507 1505 1506 1505 1500 1499 1499 1499 1500 1503 1505 1504 1514 1515 1509 1491 1498 1490 1491 1498 1501 1506 1511
1492 1490 1489 1490 1492 1493 1493 1494 1498 1500 1489 1492 1490 1490 1491 1494 1494 1495 1498 1502 1505 1515 1512 1504 1500 1498 1498 1499 1499 1500 1498 1515 1520 1518 1516 1513 1512 1490 1482 1481 1482 1487 1492 1499 1506
1493 1492 1491 1491 1492 1492 1493 1494 1502 1494 1493 1489 1489 1492 1494 1495 1498 1499 1501 1505 1506 1506 1512 1513 1510 1497 1495 1494 1495 1499 1495 1511 1534 1525 1514 1514 1508 1485 1478 1478 1480 1483 1487 1497 1503
1495 1494 1493 1493 1492 1492 1493 1495 1502 1497 1493 1490 1490 1493 1499 1498 1498 1500 1504 1505 1504 1502 1510 1512 1507 1494 1495 1494 1495 1502 1503 1502 1513 1528 1519 1508 1492 1481 1478 1477 1478 1481 1486 1490 1495
1497 1495 1494 1493 1491 1490 1491 1501 1498 1496 1493 1491 1496 1495 1500 1501 1500 1500 1507 1505 1504 1503 1503 1501 1509 1496 1494 1495 1496 1494 1501 1505 1508 1527 1529 1510 1508 1495 1483 1483 1482 1482 1484 1488 1492
1497 1497 1496 1493 1491 1491 1498 1501 1499 1496 1493 1492 1496 1499 1503 1504 1503 1505 1509 1505 1503 1501 1502 1500 1501 1498 1494 1501 1503 1498 1498 1509 1508 1517 1519 1524 1504 1498 1496 1492 1490 1486 1487 1487 1488
1498 1499 1498 1494 1494 1502 1503 1505 1502 1498 1496 1495 1498 1501 1504 1507 1506 1505 1508 1505 1503 1501 1500 1498 1496 1506 1507 1503 1503 1501 1503 1500 1503 1520 1526 1521 1505 1499 1498 1494 1492 1488 1487 1487 1490
1501 1501 1500 1495 1501 1505 1506 1505 1504 1500 1501 1499 1503 1503 1506 1509 1510 1508 1508 1505 1504 1501 1499 1498 1503 1512 1510 1503 1501 1502 1507 1510 1506 1510 1521 1516 1500 1495 1498 1494 1492 1489 1486 1485 1485
1504 1504 1504 1503 1508 1509 1510 1510 1508 1507 1507 1507 1507 1507 1506 1509 1509 1511 1507 1505 1504 1502 1500 1500 1504 1502 1505 1503 1501 1507 1508 1510 1504 1506 1515 1510 1499 1490 1497 1497 1493 1492 1487 1483 1483
1506 1513 1514 1513 1512 1514 1513 1515 1512 1512 1510 1510 1509 1511 1511 1513 1512 1513 1509 1505 1504 1503 1501 1500 1505 1507 1506 1504 1503 1504 1505 1507 1506 1511 1511 1512 1508 1499 1505 1505 1502 1498 1493 1486 1485
1512 1515 1516 1517 1517 1515 1516 1518 1517 1515 1514 1513 1514 1513 1512 1514 1516 1516 1514 1510 1508 1504 1502 1502 1507 1507 1509 1506 1508 1507 1508 1508 1507 1510 1511 1509 1505 1508 1510 1507 1506 1502 1498 1493 1490
1516 1517 1518 1521 1519 1517 1521 1520 1519 1518 1517 1516 1516 1515 1514 1515 1516 1515 1514 1512 1512 1512 1508 1507 1505 1508 1514 1513 1510 1516 1506 1509 1510 1509 1506 1505 1505 1511 1512 1512 1510 1507 1503 1500 1497